OpenBCM V2.0.2 (Linux)

Packet Radio Mailbox

IZ3LSV

[San Dona' di P. JN]

 Login: GUEST





  
LU1HVK > KEP      10.01.20 17:43l 241 Lines 12023 Bytes #999 (0) @ WW
BID : 38602_LU1HVK
Read: GUEST
Subj: TLE 21 10
Path: IZ3LSV<IW0QNL<JH4XSY<N3HYM<XE1FH<LU1HVK
Sent: 200110/1524Z 38602@LU1HVK.2594.CBA.ARG.SA LinBPQ6.0.19

                         _    _   _ _ _   ___     ___  __
                        | |  | | | / | | | \ \   / / |/ /
                        | |  | | | | | |_| |\ \ / /| ' /
                        | |__| |_| | |  _  | \ V / | . \
                        |_____\___/|_|_| |_|  \_/  |_|\_\

     BBS/NODO - CORDOBA (LEONES-FF87UH) - LU1HVK-4 NODO - LU1HVK-3 APRS

+----------------------------------------------------------------------------+
OSCAR 7
1  7530U 74089B   19293.57361615 -.00000031 +00000-0 +89177-4 0  9992
2  7530 101.7616 260.0343 0012413 107.0070 024.8734 12.53640307055800
OSCAR 11 (UoSAT 2)
1 14781U 84021B   19293.63847516 +.00000070 +00000-0 +14686-4 0  9996
2 14781 097.6045 312.4502 0006993 273.2364 086.8050 14.83113326896131
OSCAR 19 (LUSAT)
1 20442U 90005G   19293.89124238 +.00000006 +00000-0 +18317-4 0  9997
2 20442 098.6598 235.7403 0012397 139.1727 221.0387 14.32935491554104
EYESAT A
1 22825U 93061C   19293.97028114 -.00000012 +00000-0 +13511-4 0  9993
2 22825 098.9138 285.5032 0008473 004.4672 355.6584 14.30068838359441
ITAMSAT
1 22826U 93061D   19293.45332672 -.00000008 +00000-0 +14830-4 0  9994
2 22826 098.9077 284.9499 0008811 354.2284 005.8795 14.30403010359594
RADIO ROSTO
1 23439U 94085A   19293.94876191 -.00000015 +00000-0 +78346-3 0  9994
2 23439 064.8148 275.1827 0145238 088.9704 272.7856 11.27568430021901
JAS 2
1 24278U 96046B   19293.62762112 +.00000001 +00000-0 +40039-4 0  9990
2 24278 098.5566 070.3301 0349296 278.7455 077.4281 13.53094119144317
TECHSAT 1B
1 25397U 98043D   19293.87594614 -.00000003 +00000-0 +18003-4 0  9998
2 25397 098.6987 232.5644 0002165 059.6687 300.4705 14.23672569105321
ISS (ZARYA)
1 25544U 98067A   19293.85928925  .00000841  00000-0  22611-4 0  9991
2 25544  51.6432  98.1143 0007043 169.1854 296.3928 15.50209317194755
PCSAT
1 26931U 01043C   19293.80782299 -.00000016 +00000-0 +25666-4 0  9995
2 26931 067.0528 043.3967 0007468 267.7694 092.2552 14.30555705942655
SAUDISAT 1C
1 27607U 02058C   19293.77681892 +.00000001 +00000-0 +20925-4 0  9992
2 27607 064.5568 030.2182 0074645 232.3753 127.0560 14.75580577905212
CUTE-1
1 27844U 03031E   19293.96819563 +.00000047 +00000-0 +40928-4 0  9991
2 27844 098.6854 300.3291 0010465 036.7444 323.4449 14.22200314845914
CUBESAT XI 4
1 27848U 03031J   19292.79945824 +.00000026 +00000-0 +31809-4 0  9990
2 27848 098.6928 299.7029 0010579 050.9681 309.2437 14.21792430845606
MOZHAYETS 4
1 27939U 03042A   19293.92950505 +.00000040 +00000-0 +15828-4 0  9990
2 27939 098.0586 067.4541 0013631 038.8890 321.3288 14.66810047858752
CUBESAT XI 5
1 28895U 05043F   19293.37981230  .00000130  00000-0  33918-4 0  9993
2 28895  97.9774  72.0022 0015925 324.9953  35.0202 14.63701022745573
CUTE-1.7+APD II
1 32785U 08021C   19293.79367430 +.00000197 +00000-0 +26810-4 0  9997
2 32785 097.5568 287.6987 0012300 205.5519 154.5092 14.88359673622074
DELFI C3
1 32789U 08021G   19293.71270286 +.00000684 +00000-0 +49397-4 0  9991
2 32789 097.4514 339.5631 0013553 065.2404 295.0233 15.07184622625541
SEEDS
1 32791U 08021J   19293.46839602  .00000278  00000-0  33491-4 0  9996
2 32791  97.5320 293.4717 0013263 178.9939 181.1309 14.90889800622554
YUBELEINY
1 32953U 08025A   19293.83115410  .00000020  00000-0  75656-4 0  9999
2 32953  82.5012  67.5520 0019004 216.8794 143.0978 12.43091862517739
PRISM (HITOMI)
1 33493U 09002B   19293.61064908 +.00001045 +00000-0 +96754-4 0  9996
2 33493 098.1227 219.2683 0016204 129.3233 230.9427 14.96765946583673
KKS-1 (KISEKI)
1 33499U 09002H   19293.91424007 +.00000105 +00000-0 +23511-4 0  9992
2 33499 098.3403 136.5381 0009375 163.7155 196.4357 14.75470842577114
SWISSCUBE
1 35932U 09051B   19293.40743008  .00000121  00000-0  38419-4 0  9990
2 35932  98.5991 103.0954 0008305 140.3110 219.8695 14.56319598534781
BEESAT
1 35933U 09051C   19292.92208714 +.00000104 +00000-0 +34388-4 0  9999
2 35933 098.6008 104.4041 0006267 151.6659 208.4880 14.56404213534747
ITUPSAT 1
1 35935U 09051E   19293.94464680 +.00000089 +00000-0 +31583-4 0  9996
2 35935 098.6117 105.6867 0008678 149.0590 211.1119 14.55559670534688
XIWANG-1 (HOPE-1)
1 36122U 09072B   19293.77531339 -.00000046 +00000-0 -11025-4 0  9999
2 36122 100.0786 290.3467 0007969 061.8825 298.3146 13.16351550473209
TISAT 1
1 36799U 10035E   19293.42181963  .00000187  00000-0  25006-4 0  9994
2 36799  98.1715  89.8056 0013128  45.0295 315.1984 14.91179914503200
JUGNU
1 37839U 11058B   19293.43504363 +.00000333 +00000-0 +35636-4 0  9993
2 37839 019.9621 304.3802 0018628 251.3142 257.6297 14.12661921414665
SRMSAT
1 37841U 11058D   19293.51503142  .00000293  00000-0  15956-4 0  9997
2 37841  19.9736   3.2290 0011902 116.1122   5.5420 14.10641206414193
M-CUBED/EXP-1 PRIME
1 37855U 11061F   19293.87634277 +.00001433 +00000-0 +78789-4 0  9999
2 37855 101.7177 253.2353 0172998 068.5708 293.3859 15.05660293434992
HORYU 2
1 38340U 12025D   19293.11320725  .00000144  00000-0  29061-4 0  9994
2 38340  98.3167 335.3291 0012789  91.5872 268.6801 14.75761432399360
STRAND 1
1 39090U 13009E   19293.61232837 +.00000009 +00000-0 +18275-4 0  9996
2 39090 098.4758 137.4283 0008092 283.0853 076.9429 14.35100974348141
SOMP
1 39134U 13015E   19293.55752429 +.00001024 +00000-0 +55481-4 0  9997
2 39134 064.8635 339.0679 0037229 283.1207 076.5767 15.20408280359046
BEESAT 3
1 39135U 13015F   19293.63496095 +.00000804 +00000-0 +49101-4 0  9998
2 39135 064.8693 358.8751 0037300 290.3100 069.4019 15.17663772358666
BEESAT 2
1 39136U 13015G   19293.19187046 +.00000746 +00000-0 +47210-4 0  9997
2 39136 064.8701 004.4844 0028918 295.6168 064.1970 15.17079772358514
CUBEBUG 1
1 39153U 13018D   19293.23540820  .00000196  00000-0  32425-4 0  9998
2 39153  97.9812  30.6857 0017594 154.3123 205.8966 14.80609526350097
ZACUBE
1 39417U 13066B   19293.94271978 +.00000205 +00000-0 +32119-4 0  9998
2 39417 097.5626 300.4615 0058623 348.0514 011.9305 14.81163604319432
TRITON 1
1 39427U 13066M   19293.38397943 +.00000190 +00000-0 +37903-4 0  9997
2 39427 097.6922 263.2184 0114838 128.9938 232.1563 14.67891734316296
GOMX 1
1 39430U 13066Q   19293.93705754 +.00000118 +00000-0 +30626-4 0  9990
2 39430 097.7602 242.3906 0149950 222.2766 136.6800 14.59297495314729
HUMSAT D
1 39433U 13066T   19293.06290511  .00000518  00000-0  55734-4 0  9998
2 39433  97.5404 335.4444 0029353 247.7690 112.0415 14.92274203321472
CUBEBUG 2
1 39440U 13066AA  19293.41448350 +.00000222 +00000-0 +37722-4 0  9990
2 39440 097.6106 284.5960 0081278 043.8214 316.9407 14.75900382317025
FUNCUBE 1
1 39444U 13066AE  19293.94184110 +.00000258 +00000-0 +38076-4 0  9995
2 39444 097.5596 302.5225 0057538 341.3807 018.5301 14.81992542317745
UWE-3
1 39446U 13066AG  19293.95112653 +.00000219 +00000-0 +35580-4 0  9995
2 39446 097.5860 292.2440 0070427 015.7796 344.5588 14.78436008317033
SPROUT
1 39770U 14029E   19293.88462312 +.00000686 +00000-0 +81833-4 0  9997
2 39770 097.8893 036.4118 0009729 042.9990 317.1976 14.87464786293299
UNISAT 6
1 40012U 14033C   19293.69990259  .00000166  00000-0  31944-4 0  9999
2 40012  97.7387 154.8575 0059574  58.3765 302.3238 14.74019862286952
DUCHIFAT 1
1 40021U 14033M   19293.59193668 +.00000398 +00000-0 +46432-4 0  9992
2 40021 097.9254 218.6006 0013237 008.1383 352.0047 14.90709005290004
QB50P1
1 40025U 14033R   19293.95641635 +.00000233 +00000-0 +30703-4 0  9990
2 40025 097.9044 213.4262 0012901 017.1072 343.0577 14.89001374289305
CHUBUSAT 1
1 40300U 14070C   19293.78646380  .00000536  00000-0  26243-4 0  9990
2 40300  97.3157   4.7692 0020203 343.2413 164.4904 15.22209699274899
NUDT-PHONESAT
1 40900U 15049B   19293.82261118  .00001740  00000-0  76516-4 0  9996
2 40900  97.4377 301.9659 0014481 106.9852 336.0494 15.23155568226554
ZDPS 2A
1 40901U 15049C   19293.88415859 +.00000736 +00000-0 +39557-4 0  9994
2 40901 097.4625 297.9358 0014733 126.4517 328.5082 15.17880232226078
ZDPS 2B
1 40902U 15049D   19293.91216161 +.00001076 +00000-0 +56537-4 0  9999
2 40902 097.4572 295.3584 0014576 123.0541 274.6160 15.17749563226055
XW-2A
1 40903U 15049E   19293.79244520  .00001675  00000-0  40905-4 0  9993
2 40903  97.3239 337.1892 0015108  59.5607  50.8348 15.42207000229373
KAITUO 1A
1 40904U 15049F   19293.93644311 +.00000637 +00000-0 +37084-4 0  9993
2 40904 097.4713 293.8511 0015754 132.6626 314.7314 15.15469053225817
OBJECT G
1 40905U 15049G   19293.90720315 +.00000170 +00000-0 +12831-4 0  9995
2 40905 097.4766 291.2447 0016836 128.9242 318.4675 15.14365362225672
XW-2C
1 40906U 15049H   19293.91149444 +.00000397 +00000-0 +24234-4 0  9996
2 40906 097.4715 293.9650 0015966 124.4830 322.9750 15.15786125225814
XW-2D
1 40907U 15049J   19293.87298823  .00000687  00000-0  39182-4 0  9998
2 40907  97.4698 293.6086 0015322 121.2272 323.9225 15.15985151225825
LILACSAT 2
1 40908U 15049K   19293.85968235 +.00000529 +00000-0 +32800-4 0  9993
2 40908 097.4835 292.2817 0016996 129.2701 315.5280 15.13871181225596
XW-2F
1 40910U 15049M   19293.91407031 +.00000780 +00000-0 +42226-4 0  9997
2 40910 097.4657 295.8403 0016150 114.2320 333.2359 15.17474665225857
XW-2B
1 40911U 15049N   19293.91197236 +.00000419 +00000-0 +25261-4 0  9990
2 40911 097.4716 294.3170 0015284 122.3940 325.6979 15.15912302225726
KAITUO 1B
1 40912U 15049P   19293.75515638  .00000947  00000-0  47302-4 0  9999
2 40912  97.4506 299.5210 0016599  98.1460 347.1790 15.19808608226158
TIANWANG 1C (TW-1C)
1 40926U 15051B   19293.77216803  .00012188  00000-0  16319-3 0  9994
2 40926  97.1212 339.8739 0005548 269.5937 183.5377 15.58126047229466
TIANWANG 1B (TW-1B)
1 40927U 15051C   19293.86058696 +.00011363 +00000-0 +16240-3 0  9996
2 40927 097.1240 339.0763 0005731 284.1398 161.4892 15.56380502229312
